Location: ???????
(55.4362°N, 38.1183°E)
Time: 09:47:12
(UTC+00:00)

Cosmos 372 Rocket - Pass Details

Date: 29 October 2021
Orbit: 738 x 768 km, 74.1° (Epoch: 28 November)

Event Time Altitude Azimuth Distance (km) Brightness Sun altitude
Rises 14:23:46 0° 246° (WSW) 3,171 9.8 -4.6°
Reaches altitude 10° 14:26:27 10° 259° (WSW) 2,250 8.3 -5.0°
Maximum altitude 14:30:46 27° 317° (NW) 1,398 5.7 -5.6°
Drops below altitude 10° 14:35:07 10° 15° (NNE) 2,263 6.2 -6.2°
Sets 14:37:50 0° 28° (NNE) 3,192 6.8 -6.6°
